GW2016 Weather Reports


Display with metric or nautical units.
time (UTC)temp
F
wind
direction
speed
MPH
gust
MPH
rain 1hr
in
rain 24hr
in
rain mn
in
humidity
%
barometer
mb
20260507065604 51 50 6.0 13.0 0.00 0.00 0.00 85 1015.1
20260507064604 50 18 5.0 16.0 0.00 0.00 0.00 85 1015.0
20260507063604 50 74 3.0 12.0 0.00 0.00 0.00 86 1014.9
20260507062603 50 83 5.0 10.0 0.00 0.00 0.00 86 1014.7
20260507062104 50 64 5.0 12.0 0.00 0.00 0.00 86 1014.8
20260507061604 49 96 5.0 15.0 0.00 0.00 0.00 87 1014.9
20260507061104 49 55 6.0 14.0 0.00 0.00 0.00 87 1014.7
20260507060604 49 20 4.0 12.0 0.00 0.00 0.00 87 1014.5
20260507060104 49 53 6.0 15.0 0.00 0.00 0.00 87 1014.6
20260507054604 49 24 6.0 12.0 0.00 0.00 0.00 87 1014.7
20260507054104 49 13 5.0 10.0 0.00 0.00 0.00 87 1014.7
20260507053604 49 52 6.0 10.0 0.00 0.00 0.00 88 1014.7
20260507053104 49 32 5.0 16.0 0.00 0.00 0.00 88 1014.6
20260507052604 49 24 5.0 12.0 0.00 0.00 0.00 88 1014.5
20260507051604 49 0 6.0 14.0 0.00 0.00 0.00 88 1014.5
20260507051104 49 16 8.0 17.0 0.00 0.00 0.00 88 1014.6
20260507050604 49 46 7.0 13.0 0.00 0.00 0.00 88 1014.5
20260507050103 49 31 6.0 13.0 0.00 0.00 0.00 88 1014.3
20260507045604 49 125 5.0 9.0 0.00 0.00 0.00 88 1014.4
20260507045104 48 129 5.0 12.0 0.00 0.00 0.00 88 1014.5
20260507044604 48 63 5.0 10.0 0.00 0.00 0.00 88 1014.3
20260507043604 48 76 4.0 10.0 0.00 0.00 0.00 88 1014.3
20260507043104 48 149 5.0 9.0 0.00 0.00 0.00 88 1014.3
20260507042104 48 37 3.0 9.0 0.00 0.00 0.00 88 1014.1
20260507041604 48 37 3.0 12.0 0.00 0.00 0.00 88 1013.9
20260507041105 49 113 4.0 10.0 0.00 0.00 0.00 88 1014.0
20260507040604 49 21 3.0 13.0 0.00 0.00 0.00 88 1014.0
20260507035604 49 14 7.0 13.0 0.00 0.00 0.00 88 1014.0
20260507035104 49 51 5.0 10.0 0.00 0.00 0.00 88 1014.0
20260507034603 49 52 3.0 9.0 0.00 0.00 0.00 88 1014.0
20260507034104 49 49 5.0 16.0 0.00 0.00 0.00 88 1014.0
20260507033604 48 49 6.0 12.0 0.00 0.00 0.00 88 1014.1
20260507032604 48 111 3.0 10.0 0.00 0.00 0.00 88 1013.9
20260507032103 48 54 3.0 9.0 0.00 0.00 0.00 88 1014.1
20260507031604 48 58 3.0 9.0 0.00 0.00 0.00 88 1014.1
20260507031104 48 18 5.0 9.0 0.00 0.00 0.00 88 1014.0
20260507030604 48 110 5.0 9.0 0.00 0.00 0.00 88 1014.0
20260507030104 48 112 3.0 7.0 0.00 0.00 0.00 88 1013.9
20260507025603 48 125 3.0 7.0 0.00 0.00 0.00 88 1014.0
20260507024104 48 37 2.0 8.0 0.00 0.00 0.00 88 1014.0
20260507023104 48 103 2.0 5.0 0.00 0.00 0.00 88 1013.8
20260507022604 48 130 3.0 9.0 0.00 0.00 0.00 88 1013.9
20260507022104 48 49 3.0 7.0 0.00 0.00 0.00 88 1013.9
20260507021104 48 52 4.0 10.0 0.00 0.00 0.00 88 1013.8
20260507020604 48 48 3.0 7.0 0.00 0.00 0.00 88 1013.9
20260507020104 49 86 3.0 7.0 0.00 0.00 0.00 88 1013.7
20260507015604 49 105 3.0 7.0 0.00 0.00 0.00 88 1013.9
20260507015104 49 131 3.0 7.0 0.00 0.00 0.00 88 1013.7
20260507014604 49 77 3.0 6.0 0.00 0.00 0.00 88 1013.7
20260507014104 49 59 3.0 6.0 0.00 0.00 0.00 88 1013.9
20260507013603 49 60 3.0 6.0 0.00 0.00 0.00 87 1013.8
20260507013104 49 56 1.0 6.0 0.00 0.00 0.00 87 1013.9
20260507012104 49 117 3.0 6.0 0.00 0.00 0.00 87 1013.8
20260507011604 49 112 2.0 7.0 0.00 0.00 0.00 87 1014.0
20260507011104 49 132 3.0 5.0 0.00 0.00 0.00 87 1013.9
20260507010604 49 132 3.0 6.0 0.00 0.00 0.00 87 1014.0
20260507010104 49 134 4.0 6.0 0.00 0.00 0.00 87 1013.8
20260507005603 49 114 2.0 6.0 0.00 0.00 0.00 87 1014.0
20260507005104 49 68 3.0 6.0 0.00 0.00 0.00 86 1013.9
20260507004604 49 88 2.0 6.0 0.00 0.00 0.00 86 1013.8
20260507004104 49 78 3.0 6.0 0.00 0.00 0.00 86 1013.8
20260507003604 49 128 3.0 7.0 0.00 0.00 0.00 86 1013.9
20260507003104 49 98 2.0 6.0 0.00 0.00 0.00 86 1013.9
20260507002604 49 73 1.0 6.0 0.00 0.00 0.00 86 1013.9
20260507002104 49 73 3.0 8.0 0.00 0.00 0.00 86 1013.8
20260507001604 49 71 2.0 9.0 0.00 0.00 0.00 86 1013.8
20260507001104 49 100 3.0 6.0 0.00 0.00 0.00 86 1013.8
20260507000603 49 125 2.0 6.0 0.00 0.00 0.00 86 1013.9
20260507000104 49 129 2.0 6.0 0.00 0.00 0.00 86 1013.7
20260506235604 49 70 4.0 8.0 0.00 0.00 0.00 86 1013.8
20260506235103 49 65 3.0 9.0 0.00 0.00 0.00 86 1013.8
20260506234604 49 104 3.0 9.0 0.00 0.00 0.00 86 1013.7
20260506234103 49 42 3.0 9.0 0.00 0.00 0.00 86 1013.9
20260506233604 49 100 3.0 8.0 0.00 0.00 0.00 86 1013.7
20260506233104 49 44 3.0 9.0 0.00 0.00 0.00 86 1013.8
20260506232604 50 98 4.0 7.0 0.00 0.00 0.00 86 1013.9
20260506232104 50 59 3.0 8.0 0.00 0.00 0.00 86 1013.9
20260506231604 50 120 3.0 8.0 0.00 0.00 0.00 86 1013.7
20260506231106 50 78 2.0 6.0 0.00 0.00 0.00 86 1013.7
20260506230604 50 104 1.0 7.0 0.00 0.00 0.00 86 1013.6
20260506230104 50 67 2.0 7.0 0.00 0.00 0.00 86 1013.7
20260506225604 50 90 4.0 9.0 0.00 0.00 0.00 86 1013.6
20260506225104 50 82 3.0 7.0 0.00 0.00 0.00 86 1013.7
20260506224604 50 67 3.0 6.0 0.00 0.00 0.00 86 1013.6
20260506224104 50 80 2.0 6.0 0.00 0.00 0.00 87 1013.7
20260506223604 50 82 3.0 8.0 0.00 0.00 0.00 87 1013.7
20260506223104 50 62 3.0 8.0 0.00 0.00 0.00 86 1013.7
20260506222604 50 82 3.0 7.0 0.00 0.00 0.00 86 1013.6
20260506222104 50 77 3.0 6.0 0.00 0.00 0.00 86 1013.4
20260506221104 50 96 2.0 8.0 0.00 0.00 0.00 86 1013.6
20260506220104 50 97 5.0 10.0 0.00 0.00 0.00 86 1013.5
20260506215604 50 92 2.0 8.0 0.00 0.00 0.00 86 1013.4
20260506215104 50 89 4.0 9.0 0.00 0.00 0.00 86 1013.3
20260506214604 50 66 3.0 10.0 0.00 0.00 0.00 86 1013.3
20260506214104 50 115 3.0 8.0 0.00 0.00 0.00 86 1013.5
20260506213604 51 69 4.0 8.0 0.00 0.00 0.00 86 1013.4
20260506213103 51 75 5.0 10.0 0.00 0.00 0.00 86 1013.4
20260506212603 51 56 3.0 7.0 0.00 0.00 0.00 86 1013.2
20260506212104 51 58 5.0 9.0 0.00 0.00 0.00 86 1013.3
20260506211604 51 108 4.0 7.0 0.00 0.00 0.00 86 1013.5
20260506211104 51 84 2.0 8.0 0.00 0.00 0.00 86 1013.2
20260506210604 51 88 3.0 6.0 0.00 0.00 0.00 85 1013.3
20260506210104 51 105 3.0 7.0 0.00 0.00 0.00 85 1013.4
20260506205104 51 131 4.0 6.0 0.00 0.00 0.00 85 1013.2
20260506204104 51 83 3.0 7.0 0.00 0.00 0.00 85 1013.2
20260506203104 51 72 2.0 7.0 0.00 0.00 0.00 85 1013.1
20260506202604 51 80 3.0 8.0 0.00 0.00 0.00 84 1013.2
20260506202104 51 70 3.0 8.0 0.00 0.00 0.00 84 1013.2
20260506201604 51 123 3.0 6.0 0.00 0.00 0.00 84 1013.1
20260506201104 51 71 3.0 9.0 0.00 0.00 0.00 83 1013.0
20260506195604 51 52 3.0 10.0 0.00 0.00 0.00 83 1012.9
20260506195104 51 99 3.0 10.0 0.00 0.00 0.00 82 1012.9
20260506194604 52 77 4.0 7.0 0.00 0.00 0.00 82 1012.9
20260506194104 52 118 2.0 7.0 0.00 0.00 0.00 82 1012.6
20260506193604 52 71 3.0 9.0 0.00 0.00 0.00 82 1012.9
20260506193104 52 51 5.0 10.0 0.00 0.00 0.00 82 1012.6
20260506192603 52 39 3.0 9.0 0.00 0.00 0.00 81 1012.6
20260506192104 52 112 3.0 14.0 0.00 0.00 0.00 81 1012.6
20260506191103 52 79 5.0 10.0 0.00 0.00 0.00 81 1012.5
20260506190603 52 81 3.0 7.0 0.00 0.00 0.00 80 1012.3
20260506185604 52 67 2.0 10.0 0.00 0.00 0.00 80 1012.4
20260506185104 52 34 4.0 10.0 0.00 0.00 0.00 80 1012.3
20260506184604 52 95 5.0 9.0 0.00 0.00 0.00 80 1012.1
20260506184104 52 77 3.0 9.0 0.00 0.00 0.00 79 1012.1
20260506183604 52 101 3.0 12.0 0.00 0.00 0.00 79 1012.2
20260506183104 52 28 5.0 13.0 0.00 0.00 0.00 79 1012.2
20260506182104 52 48 6.0 15.0 0.00 0.00 0.00 80 1012.0
20260506181604 52 43 4.0 13.0 0.00 0.00 0.00 80 1011.9
20260506181104 52 48 5.0 14.0 0.00 0.00 0.00 80 1012.0
20260506180604 52 52 6.0 12.0 0.00 0.00 0.00 80 1011.8
20260506180104 52 50 3.0 10.0 0.00 0.00 0.00 80 1011.7
20260506175604 52 59 4.0 13.0 0.00 0.00 0.00 80 1011.7
20260506175103 52 48 5.0 13.0 0.00 0.00 0.00 80 1011.8
20260506174604 52 46 6.0 15.0 0.00 0.00 0.00 80 1011.8
20260506174104 52 36 7.0 16.0 0.00 0.00 0.00 81 1011.9
20260506173604 52 34 4.0 14.0 0.00 0.00 0.00 81 1011.7
20260506173103 52 63 4.0 13.0 0.00 0.00 0.00 82 1011.6
20260506172603 52 43 5.0 16.0 0.00 0.00 0.00 81 1011.5
20260506171604 52 31 5.0 13.0 0.00 0.00 0.00 81 1011.6
20260506171104 52 50 5.0 15.0 0.00 0.00 0.00 81 1011.8
20260506170103 52 30 6.0 14.0 0.00 0.00 0.00 81 1011.6
20260506165603 52 37 5.0 14.0 0.00 0.00 0.00 81 1011.5
20260506165103 52 35 6.0 14.0 0.00 0.00 0.00 81 1011.6
20260506164103 52 71 3.0 12.0 0.00 0.00 0.00 81 1011.4
20260506162605 53 125 3.0 10.0 0.00 0.00 0.00 81 1011.6
20260506162104 53 101 4.0 13.0 0.00 0.00 0.00 80 1011.6
20260506161605 53 63 4.0 17.0 0.00 0.00 0.00 80 1011.7
20260506161105 53 119 5.0 14.0 0.00 0.00 0.00 79 1011.6
20260506160604 53 38 8.0 18.0 0.00 0.00 0.00 78 1011.5
20260506160105 53 55 4.0 12.0 0.00 0.00 0.00 78 1011.5
20260506155605 53 55 7.0 17.0 0.00 0.00 0.00 78 1011.5
20260506155105 54 19 5.0 15.0 0.00 0.00 0.00 79 1011.6
20260506154105 54 93 7.0 20.0 0.00 0.00 0.00 78 1011.5
20260506153605 54 64 6.0 16.0 0.00 0.00 0.00 77 1011.5
20260506152105 55 46 6.0 14.0 0.00 0.00 0.00 73 1011.3
20260506151605 55 60 6.0 14.0 0.00 0.00 0.00 72 1011.3
20260506151105 56 78 5.0 12.0 0.00 0.00 0.00 72 1011.2
20260506150605 55 124 6.0 13.0 0.00 0.00 0.00 72 1011.3
20260506150104 56 80 6.0 14.0 0.00 0.00 0.00 71 1011.3
20260506145604 55 23 7.0 24.0 0.00 0.00 0.00 70 1011.2
20260506145105 56 62 4.0 16.0 0.00 0.00 0.00 71 1011.2
20260506144605 56 36 6.0 16.0 0.00 0.00 0.00 71 1011.1
20260506144105 56 25 9.0 21.0 0.00 0.00 0.00 70 1011.1
20260506143605 56 65 6.0 17.0 0.00 0.00 0.00 71 1011.0
20260506143105 56 55 6.0 15.0 0.00 0.00 0.00 70 1011.0
20260506142605 56 61 5.0 13.0 0.00 0.00 0.00 68 1011.1
20260506142104 56 49 10.0 18.0 0.00 0.00 0.00 67 1011.1
20260506141605 56 20 6.0 16.0 0.00 0.00 0.00 67 1011.2
20260506141105 56 47 7.0 22.0 0.00 0.00 0.00 68 1011.1
20260506140604 56 61 7.0 18.0 0.00 0.00 0.00 68 1011.0
20260506140105 56 45 6.0 24.0 0.00 0.00 0.00 68 1011.0
20260506135604 56 83 4.0 12.0 0.00 0.00 0.00 67 1011.2
20260506134604 56 119 5.0 12.0 0.00 0.00 0.00 67 1011.2
20260506133604 56 74 8.0 12.0 0.00 0.00 0.00 69 1011.3
20260506132606 56 115 7.0 14.0 0.00 0.00 0.00 69 1011.3
20260506132105 55 53 6.0 13.0 0.00 0.00 0.00 69 1011.3
20260506131605 55 35 6.0 15.0 0.00 0.00 0.00 69 1011.1
20260506131105 54 62 5.0 17.0 0.00 0.00 0.00 71 1011.0
20260506130105 54 33 7.0 23.0 0.00 0.00 0.00 72 1011.1
20260506125605 54 49 7.0 23.0 0.00 0.00 0.00 73 1011.3
20260506124105 54 36 10.0 24.0 0.00 0.00 0.00 73 1011.3
20260506123604 54 52 9.0 24.0 0.00 0.00 0.00 73 1011.0
20260506123105 54 44 10.0 25.0 0.00 0.00 0.00 73 1011.1
20260506122605 54 48 8.0 23.0 0.00 0.00 0.00 73 1011.0
20260506122105 54 41 12.0 29.0 0.00 0.00 0.00 73 1011.2
20260506121604 54 31 8.0 31.0 0.00 0.00 0.00 73 1011.2
20260506120605 54 68 10.0 33.0 0.00 0.00 0.00 73 1011.1
20260506120105 54 25 9.0 24.0 0.00 0.00 0.00 73 1011.0
20260506115104 54 49 8.0 28.0 0.00 0.00 0.00 72 1011.0
20260506114605 54 26 10.0 26.0 0.00 0.00 0.00 71 1011.1
20260506114105 54 55 7.0 23.0 0.00 0.00 0.00 71 1011.0
20260506113605 55 38 8.0 17.0 0.00 0.00 0.00 70 1011.1
20260506113105 55 25 7.0 15.0 0.00 0.00 0.00 69 1011.0
20260506112604 54 22 7.0 25.0 0.00 0.00 0.00 69 1010.8
20260506112106 54 54 10.0 28.0 0.00 0.00 0.00 70 1010.8
20260506111605 54 54 6.0 23.0 0.00 0.00 0.00 68 1010.9
20260506111105 54 22 9.0 25.0 0.00 0.00 0.00 68 1011.0
20260506110105 55 48 11.0 23.0 0.00 0.00 0.00 69 1011.0
20260506105604 54 52 7.0 28.0 0.00 0.00 0.00 70 1010.8
20260506105105 54 31 7.0 22.0 0.00 0.00 0.00 72 1010.9
20260506104605 54 8 7.0 26.0 0.00 0.00 0.00 72 1010.9
20260506104105 55 25 8.0 22.0 0.00 0.00 0.00 72 1010.8
20260506103605 55 19 7.0 18.0 0.00 0.00 0.00 71 1010.9
20260506102604 55 49 7.0 25.0 0.00 0.00 0.00 70 1011.0
20260506102105 54 35 10.0 20.0 0.00 0.00 0.00 70 1010.9
20260506101605 54 35 7.0 18.0 0.00 0.00 0.00 72 1011.0
20260506101105 54 44 6.0 22.0 0.00 0.00 0.00 70 1011.2
20260506100605 54 57 7.0 24.0 0.00 0.00 0.00 72 1011.0
20260506100106 53 53 10.0 24.0 0.00 0.00 0.00 73 1011.1
20260506095604 53 50 8.0 25.0 0.00 0.00 0.00 73 1010.8
20260506095105 53 30 11.0 26.0 0.00 0.00 0.00 73 1011.0
20260506094605 53 41 9.0 28.0 0.00 0.00 0.00 72 1010.9
20260506094104 53 51 8.0 20.0 0.00 0.00 0.00 72 1010.9
20260506093105 54 21 9.0 24.0 0.00 0.00 0.00 70 1010.9
20260506092605 53 39 9.0 23.0 0.00 0.00 0.00 71 1011.0
20260506092104 52 38 6.0 22.0 0.00 0.00 0.00 72 1011.1
20260506091604 54 45 11.0 24.0 0.00 0.00 0.00 70 1010.9
20260506090604 54 33 9.0 25.0 0.00 0.00 0.00 70 1010.8
20260506090104 53 42 8.0 26.0 0.00 0.00 0.00 71 1010.5
20260506085604 53 39 13.0 26.0 0.00 0.00 0.00 71 1010.7
20260506085105 53 14 10.0 30.0 0.00 0.00 0.00 72 1010.7
20260506084605 53 22 11.0 26.0 0.00 0.00 0.00 73 1010.6
20260506084105 53 27 12.0 31.0 0.00 0.00 0.00 73 1010.6
20260506083604 53 31 12.0 28.0 0.00 0.00 0.00 73 1010.9
20260506083104 52 22 12.0 22.0 0.00 0.00 0.00 74 1010.8
20260506082604 52 19 7.0 25.0 0.00 0.00 0.00 75 1010.7
20260506082105 52 49 8.0 21.0 0.00 0.00 0.00 76 1010.8
20260506081604 52 89 9.0 23.0 0.00 0.00 0.00 76 1010.7
20260506080604 52 48 9.0 21.0 0.00 0.00 0.00 76 1010.6
20260506080104 52 42 10.0 22.0 0.00 0.00 0.00 76 1010.6
20260506073105 51 34 6.0 21.0 0.00 0.00 0.00 80 1010.6
20260506072604 51 51 6.0 16.0 0.00 0.00 0.00 81 1010.5
20260506072104 51 32 8.0 26.0 0.00 0.00 0.00 82 1010.7
20260506071605 50 73 7.0 15.0 0.00 0.00 0.00 83 1010.6
20260506071105 50 31 6.0 18.0 0.00 0.00 0.00 84 1010.5